SARAL

Last updated on Sun Jun 21 2026 00:02:51 GMT+0000 (Coordinated Universal Time)

1 39086U 13009A 26171.46261523 .00000045 00000+0 32654-4 0 9997 2 39086 98.5558 357.9883 0000619 282.5589 77.5526 14.32856589696077
UTC large
Height (km)
Speed (km/s)
/
Latitude / Longitude
Inclination (degrees)
Orbital Period (minutes)
Azimuth
Elevation
Range (km)
Doppler Factor

Next 0 passes for location: London (51.5072 / 0.1276)

No passes found over London.
SARAL